Location: Caltech
(34.1382°N, 118.1253°W)
Time: 06:24:14
(UTC-07:00)

Iridium 68 - Visible Passes

Search period start: 22 July 2014 00:00
Search period end: 01 August 2014 00:00
Orbit: 776 x 779 km, 86.4° (Epoch: 21 July)

Date Brightness Start Highest point End Pass type
(mag) Time Alt. Az. Time Alt. Az. Time Alt. Az.
22 Jul 7.5 01:38:14 34° N 01:38:14 34° N 01:41:09 10° N visible
23 Jul 7.7 01:04:52 29° NNE 01:04:52 29° NNE 01:07:30 10° NNE visible
23 Jul 8.4 02:45:20 12° NW 02:45:20 12° NW 02:46:17 10° NW visible
24 Jul 8.2 00:31:30 19° NE 00:31:30 19° NE 00:33:23 10° NNE visible
24 Jul 8.0 02:11:58 21° NW 02:11:58 21° NW 02:14:08 10° NNW visible
24 Jul 8.6 23:58:07 11° NE 23:58:07 11° NE 23:58:22 10° NE visible
25 Jul 7.7 01:38:35 28° NNW 01:38:35 28° NNW 01:41:09 10° N visible
26 Jul 7.8 01:05:12 29° N 01:05:12 29° N 01:07:43 10° N visible
27 Jul 8.0 00:31:49 23° NNE 00:31:49 23° NNE 00:33:54 10° NNE visible
27 Jul 8.4 02:12:17 15° NW 02:12:17 15° NW 02:13:34 10° NW visible
27 Jul 8.4 23:58:25 14° NE 23:58:25 14° NE 23:59:33 10° NE visible
28 Jul 8.0 01:38:54 22° NNW 01:38:54 22° NNW 01:40:59 10° NNW visible
29 Jul 7.9 01:05:29 27° N 01:05:29 27° N 01:07:48 10° N visible
30 Jul 8.0 00:32:05 25° NNE 00:32:05 25° NNE 00:34:14 10° N visible
30 Jul 8.2 23:58:40 18° NE 23:58:40 18° NE 00:00:14 10° NNE visible
31 Jul 8.4 01:39:08 16° NW 01:39:08 16° NW 01:40:37 10° NNW visible
31 Jul 8.6 23:25:15 11° NE 23:25:15 11° NE 23:25:30 10° NE visible
